Voltar ao catálogo

STARLINK-3271

AtivoComunicaçõesVLEO
NORAD 50167·PAYLOAD·🇺🇸 United States

Lançado Dec 18, 2021 de Vandenberg Space Force Base

Loading…

Próximas Passagens (próximas 24 horas)

TLE

AtualizadoSource: CelesTrak SupGP

Época: Sep 14, 2026, 13:49 UTC

1 50167C 21125M   26257.57618056  .00010508  00000+0  30067-3 0  2579
2 50167  53.1579 120.1386 0001311  92.2642  81.8228 15.35391507    12

Acompanhe STARLINK-3271 em tempo real com AllMySat

Download on the App Store